Location: Elma
(49.8670°N, 95.9170°W)
Time: 01:03:11
(UTC-05:00)

ISS - Pass Details

Date: 29 March 2019
Orbit: 408 x 410 km, 51.6° (Epoch: 24 April)

Event Time Altitude Azimuth Distance (km) Brightness Sun altitude
Rises 20:12:39 0° 261° (W) 2,335 1.6 -4.3°
Reaches altitude 10° 20:14:44 10° 263° (W) 1,474 0.5 -4.7°
Maximum altitude 20:18:03 73° 349° (N) 432 -3.6 -5.2°
Drops below altitude 10° 20:21:21 10° 74° (ENE) 1,475 -1.5 -5.7°
Enters shadow 20:22:15 - 76° (ENE) 1,844 -1.0 -5.8°
